FW2265 Weather Reports


Display with metric or nautical units.
time (UTC)temp
F
wind
direction
speed
MPH
gust
MPH
rain 1hr
in
rain 24hr
in
rain mn
in
humidity
%
barometer
mb
20260506024723 77 217 1.0 3.0 0.00 0.00 0.00 89 1009.8
20260506024624 77 225 0.0 1.0 0.00 0.00 0.00 89 1009.9
20260506023624 77 192 0.0 3.0 0.00 0.00 0.00 89 1009.5
20260506022722 77 225 0.0 1.0 0.00 0.00 0.00 88 1009.4
20260506021722 77 214 1.0 4.0 0.00 0.00 0.00 88 1009.3
20260506020723 77 188 0.0 2.0 0.00 0.00 0.00 88 1009.3
20260506015724 77 225 0.0 3.0 0.00 0.00 0.00 87 1009.0
20260506014724 77 202 0.0 2.0 0.00 0.00 0.00 87 1008.9
20260506013822 78 180 0.0 2.0 0.00 0.00 0.00 86 1008.8
20260506012822 78 173 1.0 9.0 0.00 0.00 0.00 86 1008.8
20260506011824 78 189 0.0 1.0 0.00 0.00 0.00 85 1008.7
20260506010825 78 225 0.0 1.0 0.00 0.00 0.00 84 1008.5
20260506005923 78 232 2.0 4.0 0.00 0.00 0.00 85 1008.5
20260506004024 78 206 1.0 4.0 0.00 0.00 0.00 84 1008.3
20260506003023 79 219 2.0 4.0 0.00 0.00 0.00 84 1008.2
20260506002025 79 183 0.0 2.0 0.00 0.00 0.00 83 1008.3
20260506001121 79 215 2.0 5.0 0.00 0.00 0.00 83 1008.1
20260506000122 79 218 1.0 4.0 0.00 0.00 0.00 83 1008.2
20260505235125 79 156 0.0 3.0 0.00 0.00 0.00 81 1008.1
20260505234223 79 201 2.0 7.0 0.00 0.00 0.00 81 1008.1
20260505233121 80 217 1.0 4.0 0.00 0.00 0.00 81 1008.3
20260505230222 80 185 0.0 4.0 0.00 0.00 0.00 78 1008.4
20260505225223 80 226 3.0 5.0 0.00 0.00 0.00 78 1008.3
20260505224224 80 220 0.0 0.0 0.00 0.00 0.00 80 1008.2
20260505222222 80 182 0.0 3.0 0.00 0.00 0.00 81 1008.3
20260505221223 80 193 0.0 2.0 0.00 0.00 0.00 80 1008.4
20260505220224 80 204 2.0 4.0 0.00 0.00 0.00 80 1008.4
20260505215223 81 185 0.0 3.0 0.00 0.00 0.00 80 1008.7
20260505214223 81 168 0.0 1.0 0.00 0.00 0.00 79 1008.6
20260505213223 81 192 1.0 4.0 0.00 0.00 0.00 79 1008.8
20260505212124 80 208 1.0 3.0 0.00 0.00 0.00 81 1008.8
20260505211125 81 213 3.0 5.0 0.00 0.00 0.00 80 1009.0
20260505210122 81 185 0.0 1.0 0.00 0.00 0.00 80 1008.8
20260505205123 81 180 0.0 1.0 0.00 0.00 0.00 81 1009.2
20260505203123 80 204 2.0 4.0 0.00 0.00 0.00 81 1009.4
20260505201123 81 191 0.0 1.0 0.00 0.00 0.00 80 1009.7
20260505200124 81 225 2.0 4.0 0.00 0.00 0.00 80 1009.7
20260505195222 81 231 0.0 1.0 0.00 0.00 0.00 81 1009.7
20260505195123 81 206 0.0 1.0 0.00 0.00 0.00 81 1009.9
20260505194124 81 192 1.0 6.0 0.00 0.00 0.00 80 1009.9
20260505193221 81 204 2.0 6.0 0.00 0.00 0.00 82 1009.9
20260505192225 79 247 0.0 1.0 0.00 0.00 0.00 84 1010.0
20260505191222 79 220 3.0 8.0 0.00 0.00 0.00 84 1010.1
20260505185224 79 212 2.0 4.0 0.00 0.00 0.00 85 1010.2
20260505184222 78 207 1.0 5.0 0.00 0.00 0.00 86 1010.2
20260505182323 78 223 3.0 6.0 0.00 0.00 0.00 85 1010.4
20260505181322 79 225 0.0 3.0 0.00 0.00 0.00 83 1010.5
20260505180323 79 225 0.0 1.0 0.00 0.00 0.00 83 1010.5
20260505175323 79 196 3.0 5.0 0.00 0.00 0.00 84 1010.5
20260505174324 78 208 1.0 3.0 0.00 0.00 0.00 84 1010.6
20260505173323 78 180 0.0 1.0 0.00 0.00 0.00 84 1010.6
20260505172322 79 194 0.0 2.0 0.00 0.00 0.00 84 1010.7
20260505171325 79 174 0.0 2.0 0.00 0.00 0.00 83 1010.8
20260505170421 78 211 0.0 3.0 0.00 0.00 0.00 82 1010.9
20260505165423 78 193 1.0 4.0 0.00 0.00 0.00 83 1010.8
20260505164421 79 225 0.0 2.0 0.00 0.00 0.00 81 1010.8
20260505164322 79 236 0.0 2.0 0.00 0.00 0.00 82 1010.7
20260505163322 79 180 0.0 1.0 0.00 0.00 0.00 82 1010.7
20260505162322 78 200 1.0 3.0 0.00 0.00 0.00 82 1010.8
20260505161324 78 220 0.0 2.0 0.00 0.00 0.00 81 1010.7
20260505160325 78 221 1.0 4.0 0.00 0.00 0.00 81 1010.6
20260505152525 78 224 2.0 4.0 0.00 0.00 0.00 80 1010.5
20260505151525 78 219 2.0 7.0 0.00 0.00 0.00 81 1010.4
20260505150623 78 209 1.0 4.0 0.00 0.00 0.00 85 1010.3
20260505140523 76 209 2.0 3.0 0.00 0.00 0.00 85 1010.4
20260505123822 74 225 0.0 2.0 0.00 0.00 0.00 88 1009.9
20260505123724 74 225 0.0 0.0 0.00 0.00 0.00 88 1010.0
20260505122723 74 157 0.0 2.0 0.00 0.00 0.00 88 1009.5
20260505120723 74 205 0.0 3.0 0.00 0.00 0.00 88 1010.0
20260505115723 74 217 1.0 4.0 0.00 0.00 0.00 88 1010.0
20260505114723 73 185 0.0 0.0 0.00 0.00 0.00 87 1009.8
20260505113822 73 239 0.0 1.0 0.00 0.00 0.00 88 1009.9
20260505113723 73 247 0.0 0.0 0.00 0.00 0.00 88 1009.9
20260505112724 73 225 0.0 2.0 0.00 0.00 0.00 88 1009.6
20260505111724 73 197 0.0 2.0 0.00 0.00 0.00 88 1009.8
20260505110723 73 202 0.0 2.0 0.00 0.00 0.00 87 1010.1
20260505101923 73 225 0.0 1.0 0.00 0.00 0.00 87 1009.9
20260505100924 73 211 1.0 2.0 0.00 0.00 0.00 87 1009.7
20260505095923 73 225 0.0 2.0 0.00 0.00 0.00 86 1009.7
20260505095023 73 225 0.0 1.0 0.00 0.00 0.00 87 1009.6
20260505094024 73 225 0.0 1.0 0.00 0.00 0.00 86 1010.1
20260505093022 73 203 0.0 1.0 0.00 0.00 0.00 86 1010.1
20260505092924 73 221 2.0 4.0 0.00 0.00 0.00 87 1010.1
20260505091923 73 180 0.0 0.0 0.00 0.00 0.00 86 1009.9
20260505091822 73 180 0.0 0.0 0.00 0.00 0.00 86 1010.0
20260505090823 73 225 1.0 2.0 0.00 0.00 0.00 86 1010.1
20260505085823 73 225 0.0 3.0 0.00 0.00 0.00 85 1010.1
20260505085725 73 225 0.0 1.0 0.00 0.00 0.00 85 1010.1
20260505084723 73 207 0.0 1.0 0.00 0.00 0.00 85 1010.1
20260505083723 73 225 1.0 2.0 0.00 0.00 0.00 85 1010.0
20260505082722 73 225 0.0 2.0 0.00 0.00 0.00 84 1010.2
20260505081723 73 193 1.0 3.0 0.00 0.00 0.00 83 1010.2
20260505080722 73 214 1.0 3.0 0.00 0.00 0.00 84 1010.3
20260505075722 73 216 1.0 3.0 0.00 0.00 0.00 84 1010.4
20260505075623 73 225 1.0 2.0 0.00 0.00 0.00 84 1010.3
20260505074622 73 225 0.0 0.0 0.00 0.00 0.00 84 1010.4
20260505073623 73 224 0.0 1.0 0.00 0.00 0.00 84 1010.4
20260505072722 73 215 0.0 3.0 0.00 0.00 0.00 83 1010.5
20260505070823 72 225 1.0 3.0 0.00 0.00 0.00 84 1010.6
20260505065824 72 216 1.0 3.0 0.00 0.00 0.00 84 1010.9
20260505064822 72 190 0.0 2.0 0.00 0.00 0.00 84 1011.1
20260505063822 72 225 0.0 0.0 0.00 0.00 0.00 84 1011.0
20260505062823 71 225 0.0 0.0 0.00 0.00 0.00 84 1011.4
20260505061824 72 233 0.0 0.0 0.00 0.00 0.00 84 1011.3
20260505060823 72 204 0.0 1.0 0.00 0.00 0.00 83 1011.5
20260505054824 72 202 0.0 1.0 0.00 0.00 0.00 83 1011.5
20260505053823 71 204 0.0 3.0 0.00 0.00 0.00 82 1011.6
20260505052823 72 202 1.0 2.0 0.00 0.00 0.00 81 1011.4
20260505051823 71 226 0.0 2.0 0.00 0.00 0.00 81 1011.6
20260505050823 71 218 1.0 2.0 0.00 0.00 0.00 81 1011.5
20260505041736 72 200 0.0 1.0 0.00 0.00 0.00 80 1012.3
20260505040834 72 202 0.0 4.0 0.00 0.00 0.00 80 1012.0
20260505035836 72 225 0.0 1.0 0.00 0.00 0.00 79 1012.3
20260505034934 72 224 1.0 2.0 0.00 0.00 0.00 79 1012.2
20260505033934 72 221 0.0 2.0 0.00 0.00 0.00 78 1012.4
20260505032034 72 247 0.0 1.0 0.00 0.00 0.00 77 1012.3
20260505031033 72 202 1.0 2.0 0.00 0.00 0.00 77 1012.4
20260505030038 72 189 0.0 1.0 0.00 0.00 0.00 76 1012.3